Owosso, MI

12:21 PM EST on December 07, 2016 (GMT -0500)
Owosso

Weather History for KRNP - January, 2014

Change the Weather History Date:

Friday, January 17, 2014

  Actual Average (KFNT) Record (KFNT)
Temperature  
Mean Temperature 24 °F 22 °F  
Max Temperature 30 °F 29 °F 60 °F (1952)
Min Temperature 18 °F 15 °F -15 °F (1982)
Degree Days  
Heating Degree Days 40 43  
Month to date heating degree days 720  
Since 1 July heating degree days 3365  
Cooling Degree Days 0 0  
Month to date cooling degree days 0  
Year to date cooling degree days 0  
Moisture  
Dew Point 20 °F    
Average Humidity 83    
Maximum Humidity 96    
Minimum Humidity 77    
Precipitation  
Precipitation 0.00 in 0.06 in 0.61 in (1988)
Month to date precipitation 0.96  
Year to date precipitation 0.96  
Snow  
Snow 0.00 in 0.40 in 4.30 in (1970)
Month to date snowfall 7.2  
Since 1 July snowfall 21.9  
Snow Depth -    
Sea Level Pressure  
Sea Level Pressure 29.74 in    
Wind  
Wind Speed 10 mph (WSW)    
Max Wind Speed 17 mph    
Max Gust Speed 25 mph    
Visibility 9 miles    
Events Snow    
T = Trace of Precipitation, MM = Missing Value Source: NWS Daily Summary

Daily Weather History Graph

Daily Weather History Graph

Search for Another Location

Airport or City:

Trip Planner

Search our weather history database for the weather conditions in past years. The results will help you decide how hot, cold, wet, or windy it might be!

Date:

Astronomy

Jan. 17, 2014 Rise Set
Actual Time 8:03 AM EST 5:29 PM EST
Civil Twilight 7:32 AM EST 6:01 PM EST
Nautical Twilight 6:57 AM EST 6:36 PM EST
Astronomical Twilight 6:23 AM EST 7:09 PM EST
Moon 7:19 PM EST (1/17) 8:27 AM EST (1/17)
Length of Visible Light 10h 28m
Length of Day
9h 25m
Full, 98% of the Moon is Illuminated
Jan 17
Full
Jan 24
Last Quarter
Jan 30
New
Feb 6
First Quarter
Feb 14
Full

Hourly Weather History & Observations

Time (EST) Temp. Windchill Dew Point Humidity Pressure Visibility Wind Dir Wind Speed Gust Speed Precip Events Conditions
12:14 AM 27.5 °F 20.2 °F 25.7 °F 93% 29.58 in 4.0 mi South 6.9 mph - N/A Snow Light Snow
12:35 AM 27.5 °F 20.2 °F 26.2 °F 95% 29.57 in 4.0 mi South 6.9 mph - N/A Snow Light Snow
12:55 AM 27.5 °F 18.6 °F 26.4 °F 96% 29.57 in 5.0 mi South 9.2 mph - N/A Snow Light Snow
1:15 AM 27.9 °F 19.8 °F 26.4 °F 94% 29.57 in 7.0 mi South 8.1 mph - N/A   Overcast
1:35 AM 28.4 °F 20.4 °F 26.6 °F 93% 29.56 in 10.0 mi South 8.1 mph - N/A   Overcast
1:54 AM 28.2 °F 20.2 °F 26.4 °F 93% 29.57 in 10.0 mi South 8.1 mph - N/A   Overcast
2:15 AM 28.4 °F 20.4 °F 26.6 °F 93% 29.57 in 10.0 mi South 8.1 mph - N/A   Overcast
2:35 AM 28.8 °F 21.7 °F 27.1 °F 94% 29.57 in 10.0 mi SSW 6.9 mph - N/A   Overcast
2:55 AM 29.3 °F 22.3 °F 27.5 °F 93% 29.58 in 10.0 mi SW 6.9 mph - N/A   Overcast
3:15 AM 30.0 °F 19.5 °F 27.3 °F 90% 29.58 in 10.0 mi SW 13.8 mph 19.6 mph N/A   Overcast
3:35 AM 29.8 °F 19.3 °F 26.6 °F 88% 29.59 in 10.0 mi SW 13.8 mph 20.7 mph N/A   Overcast
3:55 AM 29.3 °F 18.6 °F 26.8 °F 90% 29.59 in 7.0 mi WSW 13.8 mph - N/A   Overcast
4:15 AM 28.9 °F 18.2 °F 26.6 °F 91% 29.60 in 5.0 mi WSW 13.8 mph 21.9 mph N/A Snow Light Snow
4:35 AM 28.4 °F 16.6 °F 26.6 °F 93% 29.60 in 4.0 mi WSW 16.1 mph 19.6 mph N/A Snow Light Snow
4:55 AM 28.4 °F 18.0 °F 25.7 °F 90% 29.62 in 10.0 mi SW 12.7 mph 20.7 mph N/A Snow Light Snow
5:15 AM 27.5 °F 16.8 °F 24.8 °F 90% 29.63 in 3.0 mi WSW 12.7 mph 23.0 mph N/A Snow Light Snow
5:34 AM 27.5 °F 15.0 °F 24.3 °F 88% 29.64 in 4.0 mi WSW 17.3 mph 25.3 mph N/A Snow Light Snow
5:55 AM 27.3 °F 15.6 °F 23.4 °F 85% 29.65 in 10.0 mi WSW 15.0 mph 24.2 mph N/A   Overcast
6:15 AM 27.3 °F 14.8 °F 23.0 °F 84% 29.65 in 10.0 mi WSW 17.3 mph 21.9 mph N/A   Overcast
6:35 AM 27.0 °F 16.1 °F 22.5 °F 83% 29.66 in 10.0 mi WSW 12.7 mph 21.9 mph N/A   Overcast
6:55 AM 26.6 °F 15.2 °F 21.9 °F 82% 29.67 in 10.0 mi WSW 13.8 mph 19.6 mph N/A   Overcast
7:14 AM 26.2 °F 15.8 °F 21.7 °F 83% 29.67 in 10.0 mi West 11.5 mph - N/A   Overcast
7:35 AM 25.7 °F 15.1 °F 20.8 °F 82% 29.69 in 10.0 mi WSW 11.5 mph - N/A   Overcast
7:55 AM 25.7 °F 16.4 °F 20.7 °F 81% 29.70 in 10.0 mi WSW 9.2 mph - N/A   Overcast
8:14 AM 25.3 °F 16.0 °F 20.3 °F 81% 29.70 in 10.0 mi WSW 9.2 mph - N/A   Overcast
8:35 AM 24.8 °F 16.1 °F 20.3 °F 83% 29.71 in 10.0 mi West 8.1 mph - N/A   Overcast
8:55 AM 25.3 °F 16.0 °F 21.0 °F 84% 29.72 in 10.0 mi West 9.2 mph - N/A   Overcast
9:15 AM 25.5 °F 16.2 °F 20.8 °F 82% 29.73 in 10.0 mi WSW 9.2 mph - N/A   Overcast
9:35 AM 25.7 °F 16.4 °F 21.0 °F 82% 29.74 in 10.0 mi WSW 9.2 mph - N/A   Overcast
9:55 AM 25.7 °F 15.7 °F 20.8 °F 82% 29.74 in 10.0 mi WSW 10.4 mph - N/A   Overcast
10:15 AM 26.1 °F 16.8 °F 20.7 °F 80% 29.74 in 10.0 mi West 9.2 mph - N/A   Overcast
10:35 AM 25.7 °F 16.4 °F 20.7 °F 81% 29.75 in 10.0 mi West 9.2 mph - N/A   Overcast
10:55 AM 26.1 °F 16.8 °F 20.3 °F 79% 29.76 in 10.0 mi WSW 9.2 mph - N/A   Overcast
11:15 AM 25.7 °F 16.4 °F 20.3 °F 80% 29.76 in 10.0 mi WSW 9.2 mph 16.1 mph N/A   Overcast
11:35 AM 25.7 °F 15.7 °F 20.3 °F 80% 29.76 in 10.0 mi West 10.4 mph - N/A   Overcast
11:54 AM 25.9 °F 17.4 °F 20.7 °F 81% 29.76 in 10.0 mi WSW 8.1 mph - N/A   Overcast
12:15 PM 25.9 °F 16.0 °F 20.5 °F 80% 29.76 in 10.0 mi West 10.4 mph - N/A   Overcast
12:35 PM 25.5 °F 16.2 °F 19.4 °F 78% 29.76 in 10.0 mi West 9.2 mph - N/A   Overcast
12:54 PM 25.3 °F 15.3 °F 19.2 °F 78% 29.76 in 10.0 mi West 10.4 mph - N/A   Overcast
1:15 PM 25.7 °F 16.4 °F 19.4 °F 77% 29.76 in 10.0 mi West 9.2 mph - N/A   Overcast
1:34 PM 25.0 °F 14.8 °F 18.7 °F 77% 29.76 in 10.0 mi WSW 10.4 mph - N/A   Overcast
1:55 PM 25.0 °F 14.2 °F 18.9 °F 78% 29.76 in 10.0 mi West 11.5 mph - N/A   Overcast
2:14 PM 24.8 °F 14.6 °F 19.0 °F 79% 29.77 in 10.0 mi West 10.4 mph - N/A   Overcast
2:35 PM 24.8 °F 14.0 °F 19.0 °F 79% 29.77 in 10.0 mi West 11.5 mph - N/A   Overcast
2:55 PM 24.3 °F 13.9 °F 18.5 °F 79% 29.77 in 10.0 mi WSW 10.4 mph - N/A   Overcast
3:14 PM 24.3 °F 12.2 °F 18.5 °F 79% 29.78 in 10.0 mi WSW 13.8 mph - N/A   Overcast
3:35 PM 23.7 °F 11.0 °F 18.0 °F 79% 29.79 in 10.0 mi WSW 15.0 mph 19.6 mph N/A   Overcast
3:55 PM 23.0 °F 11.7 °F 17.4 °F 79% 29.79 in 10.0 mi WSW 11.5 mph - N/A   Overcast
4:15 PM 22.8 °F 11.5 °F 17.2 °F 79% 29.80 in 10.0 mi WSW 11.5 mph 17.3 mph N/A   Overcast
4:35 PM 22.8 °F 10.9 °F 17.1 °F 79% 29.81 in 10.0 mi WSW 12.7 mph 16.1 mph N/A   Overcast
4:55 PM 22.5 °F 11.1 °F 16.7 °F 79% 29.82 in 10.0 mi WSW 11.5 mph - N/A   Overcast
5:15 PM 21.9 °F 9.8 °F 16.5 °F 80% 29.83 in 10.0 mi WSW 12.7 mph - N/A   Overcast
5:35 PM 21.7 °F 10.2 °F 16.0 °F 78% 29.83 in 10.0 mi West 11.5 mph - N/A   Overcast
5:55 PM 21.7 °F 9.6 °F 15.8 °F 78% 29.84 in 10.0 mi WSW 12.7 mph - N/A   Overcast
6:15 PM 21.6 °F 11.3 °F 15.8 °F 78% 29.84 in 10.0 mi WSW 9.2 mph - N/A   Overcast
6:35 PM 21.2 °F 8.9 °F 15.3 °F 78% 29.84 in 10.0 mi WSW 12.7 mph - N/A   Overcast
6:54 PM 21.2 °F 11.7 °F 15.4 °F 78% 29.85 in 10.0 mi WSW 8.1 mph - N/A   Overcast
7:15 PM 21.2 °F 12.6 °F 15.6 °F 79% 29.86 in 10.0 mi WSW 6.9 mph - N/A   Overcast
7:34 PM 21.0 °F 8.6 °F 15.4 °F 79% 29.86 in 10.0 mi West 12.7 mph 16.1 mph N/A   Overcast
7:55 PM 20.3 °F 8.3 °F 14.7 °F 79% 29.87 in 10.0 mi WSW 11.5 mph - N/A   Overcast
8:15 PM 19.9 °F 7.3 °F 13.8 °F 77% 29.87 in 10.0 mi West 12.7 mph 17.3 mph N/A   Overcast
8:35 PM 19.9 °F 7.3 °F 14.0 °F 78% 29.87 in 10.0 mi West 12.7 mph - N/A   Overcast
8:55 PM 19.8 °F 8.3 °F 14.0 °F 78% 29.87 in 10.0 mi WSW 10.4 mph - N/A   Overcast
9:14 PM 19.8 °F 7.7 °F 14.0 °F 78% 29.88 in 10.0 mi WSW 11.5 mph 19.6 mph N/A   Overcast
9:35 PM 19.8 °F 7.1 °F 14.0 °F 78% 29.88 in 10.0 mi West 12.7 mph 20.7 mph N/A   Overcast
9:55 PM 19.8 °F 7.1 °F 14.0 °F 78% 29.88 in 10.0 mi WSW 12.7 mph 19.6 mph N/A   Overcast
10:14 PM 19.8 °F 9.1 °F 14.0 °F 78% 29.88 in 10.0 mi WSW 9.2 mph - N/A   Overcast
10:35 PM 19.8 °F 9.1 °F 14.4 °F 80% 29.88 in 10.0 mi WSW 9.2 mph - N/A   Overcast
10:55 PM 19.4 °F 8.6 °F 14.2 °F 80% 29.88 in 10.0 mi WSW 9.2 mph - N/A   Overcast
11:15 PM 19.4 °F 8.6 °F 14.0 °F 80% 29.87 in 10.0 mi WSW 9.2 mph 16.1 mph N/A   Overcast
11:35 PM 19.2 °F 11.3 °F 13.8 °F 80% 29.87 in 10.0 mi SW 5.8 mph - N/A   Overcast
11:55 PM 18.7 °F 8.6 °F 13.3 °F 79% 29.87 in 10.0 mi SW 8.1 mph - N/A   Overcast